This is the latest recevied weather packets stored in our database for station/object N0HEQ. If no packets are shown the sender has not sent any weather packets the latest 10 day(s).
| Time | Temp. | Humidity | Pressure | Rain* | Wind** | Luminosity | Snow |
|---|---|---|---|---|---|---|---|
| 1777908941 | 18.89° C | 26% | 1012.8 hPa | 0 mm | - | 196 W/m² | - |
| 1777908639 | 18.33° C | 25% | 1013.2 hPa | 0 mm | - | 180 W/m² | - |
| 1777908335 | 17.78° C | 24% | 1012.9 hPa | 0 mm | - | 178 W/m² | - |
| 1777908032 | 17.78° C | 25% | 1013 hPa | 0 mm | - | 172 W/m² | - |
| 1777907728 | 17.78° C | 26% | 1013.2 hPa | 0 mm | - | 172 W/m² | - |
| 1777907427 | 17.78° C | 25% | 1013 hPa | 0 mm | - | 160 W/m² | - |
| 1777907125 | 17.78° C | 26% | 1013.2 hPa | 0 mm | - | 158 W/m² | - |
| 1777906823 | 17.78° C | 25% | 1013.2 hPa | 0 mm | - | 167 W/m² | - |
| 1777906520 | 17.22° C | 27% | 1013.4 hPa | 0 mm | - | 307 W/m² | - |
| 1777906215 | 16.67° C | 26% | 1013 hPa | 0 mm | - | 299 W/m² | - |
| 1777905912 | 16.11° C | 27% | 1012.9 hPa | 0 mm | - | 215 W/m² | - |
| 1777905609 | 16.11° C | 28% | 1012.9 hPa | 0 mm | - | 131 W/m² | - |
| 1777905306 | 15.56° C | 29% | 1013.3 hPa | 0 mm | - | 122 W/m² | - |
| 1777905003 | 15.56° C | 31% | 1013 hPa | 0 mm | - | 124 W/m² | - |
| 1777904701 | 15° C | 31% | 1013 hPa | 0 mm | - | 128 W/m² | - |
| 1777904397 | 15° C | 31% | 1013.4 hPa | 0 mm | - | 128 W/m² | - |
| 1777904094 | 14.44° C | 30% | 1013.2 hPa | 0 mm | - | 148 W/m² | - |
| 1777903791 | 14.44° C | 32% | 1013 hPa | 0 mm | - | 126 W/m² | - |
| 1777903487 | 13.89° C | 32% | 1013 hPa | 0 mm | - | 153 W/m² | - |
| 1777903184 | 13.33° C | 32% | 1013.3 hPa | 0 mm | - | 118 W/m² | - |
| 1777902880 | 12.78° C | 32% | 1013.2 hPa | 0 mm | - | 86 W/m² | - |
| 1777902577 | 12.78° C | 34% | 1013.2 hPa | 0 mm | - | 70 W/m² | - |
| 1777902274 | 12.78° C | 32% | 1013.2 hPa | 0 mm | - | 64 W/m² | - |
| 1777901972 | 12.78° C | 33% | 1013.2 hPa | 0 mm | - | 66 W/m² | - |
| 1777901669 | 12.78° C | 34% | 1013 hPa | 0 mm | - | 61 W/m² | - |
* Rain latest hour (hover to see other rain measurements)
** Current wind speed in m/s (hover to see current wind gust speed)